Location: Gro�sch�nbrunn
(49.5760°N, 11.8868°E)
Time: 22:24:13
(UTC+00:00)

SPOT 3 Rocket - Pass Details

Date: 18 September 2020
Orbit: 780 x 794 km, 98.7° (Epoch: 30 October)

Event Time Altitude Azimuth Distance (km) Brightness Sun altitude
Exits shadow 18:22:56 15° 114° (ESE) 2,033 5.0 -11.1°
Maximum altitude 18:26:26 30° 62° (ENE) 1,386 4.5 -11.7°
Drops below altitude 10° 18:30:51 10° 3° (N) 2,347 6.2 -12.4°
Sets 18:33:24 0° 353° (N) 3,280 7.1 -12.8°
